Simultaneous Nadir Overpasses (SNOs) Predictions

Prediction of SNOs between METOP-A and NOAA-19 Satellite Orbit:

Table of predicted SNOs for the next 14.0 days since TLE Epoch: 11/28/2014
Index Date (METOP-A) Time (METOP-A) Lat,Lon (METOP-A) SZA (METOP-A ) Date (NOAA-19) Time (NOAA-19) Lat,Lon (NOAA-19) SZA (NOAA-19 ) Distance(km) Time Diff (sec)
1 11/30/2014 10:29:42 -74.46,-161.56 83.97 11/30/2014 10:28:27 -74.49,-161.65 83.93 4.60 75
2 11/30/2014 11:20:22 74.44, 5.72 96.02 11/30/2014 11:19:23 74.42, 5.81 96.00 3.35 59
3 11/30/2014 12:11:04 -74.44, 173.05 83.98 11/30/2014 12:10:29 -74.43, 173.00 83.98 1.52 35
4 11/30/2014 13:01:44 74.42, -19.67 96.01 11/30/2014 13:01:26 74.41, -19.67 96.01 0.76 18
5 11/30/2014 13:52:27 -74.37, 147.53 84.04 11/30/2014 13:52:31 -74.38, 147.64 84.03 3.43 4
6 11/30/2014 14:43:06 74.40, -45.06 96.00 11/30/2014 14:43:29 74.40, -45.16 96.01 2.97 23
7 11/30/2014 15:33:49 -74.35, 122.14 84.04 11/30/2014 15:34:34 -74.37, 122.16 84.03 1.93 45
8 11/30/2014 16:24:29 74.33, -70.58 95.95 11/30/2014 16:25:31 74.34, -70.52 95.96 2.45 62
9 11/30/2014 17:15:20 -73.89, 95.65 84.48 11/30/2014 17:16:28 -73.92, 97.80 84.46 66.29 68
10 12/10/2014 18:49:25 -74.74, 74.24 82.40 12/10/2014 18:48:13 -74.74, 72.87 82.38 40.15 72
11 12/10/2014 19:40:10 74.47,-119.15 97.34 12/10/2014 19:39:04 74.46,-119.09 97.34 1.94 66
12 12/10/2014 20:30:52 -74.48, 48.20 82.65 12/10/2014 20:30:10 -74.45, 48.18 82.67 3.11 42
13 12/10/2014 21:21:32 74.44,-144.55 97.33 12/10/2014 21:21:07 74.46,-144.58 97.34 1.47 25
14 12/10/2014 22:12:15 -74.41, 22.68 82.71 12/10/2014 22:12:13 -74.44, 22.69 82.68 3.75 2
15 12/10/2014 23:02:54 74.42,-169.94 97.32 12/10/2014 23:03:09 74.40,-169.94 97.29 2.81 15
16 12/10/2014 23:53:37 -74.39, -2.71 82.72 12/10/2014 23:54:15 -74.38, -2.67 82.73 1.21 38
17 12/11/2014 00:44:16 74.40, 164.67 97.30 12/11/2014 00:45:12 74.39, 164.57 97.29 3.15 56
18 12/11/2014 01:35:02 -74.22, -28.48 82.88 12/11/2014 01:36:15 -74.23, -27.78 82.88 21.24 73




NCC Satellite Simultaneous Nadir Overpasses (SNOs) Prediction Service
